Regional Weather Roundup
Issued by NWS

Home | Current Version | Previous Version | Graphics & Text | Print | Product List | Glossary On
Versions: 1 2 3 4 5 6 7 8 9 10 11 12 13 14 15 16 17 18 19 20 21 22 23 24 25 26 27 28 29 30 31 32 33 34 35 36 37 38 39 40 41 42 43 44 45 46 47 48 49 50
000
ASUS43 KMKX 301000
RWRWI

WISCONSIN REGIONAL WEATHER ROUNDUP
NATIONAL WEATHER SERVICE MILWAUKEE/SULLIVAN WI
500 AM CDT SAT JUL 30 2016

NOTE: "FAIR" INDICATES FEW OR NO CLOUDS BELOW 12,000 FEET WITH NO
SIGNIFICANT WEATHER AND/OR OBSTRUCTIONS TO VISIBILITY.

WIZ001-002-006>008-014>016-023>028-301100-
NORTHWEST WISCONSIN

CITY           SKY/WX    TMP DP  RH WIND       PRES   REMARKS
SUPERIOR ARPT  FOG       48  48 100 CALM      30.05S VSB 1/4
ASHLAND        PTCLDY    50  50 100 CALM      30.06R FOG
HAYWARD        CLEAR     53  51  93 CALM      30.06S
SIREN          NOT AVBL
CUMBERLAND     PTCLDY    55  54  94 CALM      30.06R
RICE LAKE      PTCLDY    56  54  94 CALM      30.07R
CHETEK         MOCLDY    60  58  94 CALM      30.06R
LADYSMITH        N/A     57  56  94 CALM      30.08S FOG
EAU CLAIRE     FOG       60  60 100 CALM      30.04R VSB 3/4
MENOMONIE      PTCLDY    60  57  91 CALM      30.05S
NEW RICHMOND   PTCLDY    60  59  96 SE7       30.04R
OSCEOLA        MOCLDY    59  59 100 CALM      30.06S
$$

WIZ003>005-009-010-017-018-301100-
NORTH CENTRAL WISCONSIN

CITY           SKY/WX    TMP DP  RH WIND       PRES   REMARKS
MANITOWISH WTR MOCLDY    53  53 100 CALM      30.08S
ARBOR VITAE    CLEAR     57  55  95 CALM      30.09S
WOODRUFF       CLEAR     57  55  95 CALM      30.09S
RHINELANDER    CLOUDY    56  54  93 CALM      30.10R
EAGLE RIVER    PTCLDY    53  53 100 CALM      30.09S
LAND O LAKES   PTCLDY    52  51  99 CALM      30.10S
PHILLIPS       CLEAR     55  55  99 CALM      30.08S
TOMAHAWK       PTCLDY    48  47  97 CALM      30.09S
MEDFORD        CLOUDY    57  57 100 NE3       30.07S
MERRILL        CLEAR     52  52 100 CALM      30.08S
$$

WIZ029-030-035-036-043>047-301100-
CENTRAL WISCONSIN

CITY           SKY/WX    TMP DP  RH WIND       PRES   REMARKS
WAUSAU         CLOUDY    59  55  87 CALM      30.05R
MOSINEE        CLOUDY    59  55  88 NE8       30.06S
MARSHFIELD     MOCLDY    61  55  81 NE6       30.05R
STEVENS POINT  CLOUDY    58  56  93 NE6       30.05S
WAUPACA        CLOUDY    65  60  85 CALM      30.04R
WAUTOMA        NOT AVBL
WISC RAPIDS    CLOUDY    63  56  78 NE5       30.05R
CAMP DOUGLAS   NOT AVBL
$$

WIZ011>013-019>022-031-037>040-048>050-301100-
NORTHEAST WISCONSIN

CITY           SKY/WX    TMP DP  RH WIND       PRES   REMARKS
ANTIGO         MOCLDY    53  51  95 CALM      30.08S
SHAWANO        CLOUDY    63  57  82 NE8       30.05S
OCONTO         PTCLDY    58  58 100 NE3       30.04R
STURGEON BAY   CLOUDY    64  60  87 NE7       30.05R
GREEN BAY      CLEAR     59  59 100 N7        30.03R
MANITOWOC      NOT AVBL
APPLETON       CLOUDY    61  55  82 N6        30.01S
CLINTONVILLE   CLOUDY    61  55  82 NE6       30.04S
OSHKOSH        CLOUDY    68  61  78 CALM      30.01S
$$

WIZ032>034-041-042-053>061-301100-
SOUTHWEST WISCONSIN

CITY           SKY/WX    TMP DP  RH WIND       PRES   REMARKS
LA CROSSE      CLOUDY    67  65  93 CALM      30.01S
SPARTA         CLOUDY    62  61  97 CALM      30.03S
VIROQUA        CLOUDY    64  64 100 CALM      30.03R
BOSCOBEL       CLOUDY    64  63  96 CALM      30.00S FOG
PRAIRIE DU CHI CLOUDY    66  63  90 CALM      29.99S
PLATTEVILLE    CLOUDY    65  65 100 N6        30.00S
$$

WIZ056-057-062-063-064-067-068-301100-
SOUTH CENTRAL WISCONSIN

CITY           SKY/WX    TMP DP  RH WIND       PRES   REMARKS
REEDSBURG      CLOUDY    62  62  99 CALM      30.01S
BARABOO/DELLS  CLOUDY    62  59  90 CALM      30.02S
LONE ROCK      NOT AVBL
MINERAL POINT  CLOUDY    64  64 100 N3        30.00S
MADISON        MOCLDY    63  59  87 N5        29.99S
MIDDLETON      CLOUDY    64  61  89 NE3       30.01R
WATERTOWN      CLOUDY    64  64 100 N3        29.99S
MONROE         CLOUDY    63  63 100 N7        29.98S
JANESVILLE     CLOUDY    66  64  94 N3        29.96S
$$

WIZ051-052-058>065-066-070>072-301100-
SOUTHEAST WISCONSIN

CITY           SKY/WX    TMP DP  RH WIND       PRES   REMARKS
MILWAUKEE      MOCLDY    67  63  87 NE6       29.97S
WAUKESHA       PTCLDY    63  59  88 NE3       30.00S
MILWAUKEE/TIMM CLEAR     64  55  72 CALM      29.99S
RACINE         CLOUDY    67  62  84 E6        29.98S
BURLINGTON     CLOUDY    63  62  97 CALM      29.97S
KENOSHA        CLOUDY    66  62  87 NE6       29.97S
FOND DU LAC    CLOUDY    67  61  81 NE6       30.01S
SHEBOYGAN      CLEAR     61  58  90 N3        30.01S
WEST BEND      CLEAR     61  59  94 NE5       30.00S
JUNEAU         CLOUDY    64  60  90 N3        30.02R
$$

LSZ147-162-301100-
LAKE SUPERIOR

STATION/POSITION TIME  TEMP    WIND        PRES    WAVE
                       AIR SEA DIR/SP/G            HT/PER
                 (UTC) (F)     (DEG/KT/KT) (MB)    (FT/S)
W MID LAKE BUOY  0850   62 62   50/  4/  4 1017.2F   1
DEVILS ISLAND    0900   64      40/  8/  9 1017.4F
PORT WING        0900   55     130/  2/  4 1017.6S
SAXON HARBOR     0900   57     170/  2/  2 1017.3S
$$

LMZ867-665-643>646-301100-
LAKE MICHIGAN

STATION/POSITION TIME  TEMP    WIND        PRES    WAVE
                       AIR SEA DIR/SP/G            HT/PER
                 (UTC) (F)     (DEG/KT/KT) (MB)    (FT/S)
CHAMBERS ISLAND  0900   69      60/  6/  8 1017.3S
S GREEN BAY BUOY 0800   68 70   70/  8/ 12 1016.1
N MID LAKE BUOY  0850   69 69  100/  8/ 10 1017.1S   1/ 3
NORTHPORT PIER   0900   70     100/  7/ 10 1017.3S
SISTER BAY       0921   64     120/  3/  6   N/A
ALGOMA LAKESHORE 0913             CALM       N/A
KEWAUNEE LAKESHO 0900   66     350/  1/  2 1016.2R
SHEBOYGAN LAKESH 0900   69     100/  9/ 10 1016.0S
PORT WASHINGTON  0900   67      70/  4/  5 1016.3F
ATWATER BUOY     0900   66 60   90/  6/  8 1016.6F
MILWAUKEE LAKESH 0910   66      90/  6/  7   N/A
S MID LAKE BUOY  0850   68 73   60/ 17/ 21 1014.0R   4/ 5
KENOSHA   LAKESH 0900   68      80/ 16/ 19 1014.2F
$$

TC  - TEMPERATURE IN CELSIUS
VSB - VISIBILITY IN STATUTE MILES
WCI - WIND CHILL INDEX
HX  - HEAT INDEX





USA.gov is the U.S. government's official web portal to all federal, state and local government web resources and services.